{"data":{"norad_id":59949,"epoch":"2026-09-21T12:27:53.551584Z","epoch_age_seconds":89192,"freshness":"FRESH","line1":"1 59949U 24107E   26264.51936981 -.00002094  00000+0 -12437-4 0  9999","line2":"2 59949  53.1607   5.8621 0001212  84.6876 275.4280 15.69693143132963","mean_motion":15.69693143,"eccentricity":0.0001212,"inclination_deg":53.1607,"raan_deg":5.8621,"arg_perigee_deg":84.6876,"mean_anomaly_deg":275.428,"bstar":-1.2437e-5,"rev_number":13296,"period_min":91.737675380799,"perigee_km":358.95835419987,"apogee_km":360.59162406604,"semimajor_km":6737.911989133,"source":"CELESTRAK","updated_at":"2026-09-22T09:00:49.116278Z"}}